Location: Poughquag
(41.6090°N, 73.6820°W)
Time: 19:37:10
(UTC-05:00)

A-11 Canister half - Pass Details

Date: 13 December 2023
Orbit: 1526 x 1682 km, 47.3° (Epoch: 23 February)

Event Time Altitude Azimuth Distance (km) Brightness Sun altitude
Rises 22:21:25 0° 296° (WNW) 4,935 12.0 -64.0°
Reaches altitude 10° 22:24:36 10° 295° (WNW) 3,938 11.4 -64.5°
Enters shadow 22:25:03 12° 295° (WNW) 3,802 11.3 -64.6°
